�N����,����,�~����,�C��,���x,�C��,����,���ϕ���,�ő�u�ԕ���,�ő厞����,���˗�,�I�_���x,�n�����x,�ő啗���N��,DTYPE
"20/06/20","00:10",0.0,19.0,92.4,1001.7,337.1,0.8,1.8,338.4,0.00,17.8,20.7,"00:05:12",1
"20/06/20","00:20",0.0,19.0,92.4,1001.2,343.8,0.8,1.6,344.0,0.00,17.8,20.9,"00:14:32",1
"20/06/20","00:30",0.0,19.0,92.4,1001.5,347.9,0.6,1.2,355.3,0.00,17.8,20.9,"00:22:24",1
"20/06/20","00:40",0.0,18.9,92.4,1001.2,347.2,0.6,1.3,357.0,0.00,17.7,20.7,"00:35:52",1
"20/06/20","00:50",0.0,18.9,92.5,1001.0,310.9,0.5,1.6,349.4,0.00,17.7,20.9,"00:42:48",1
"20/06/20","01:00",0.0,18.9,92.5,1001.2,343.9,0.6,1.4,353.2,0.00,17.7,20.7,"00:56:40",1
"20/06/20","01:10",0.0,18.9,92.5,1001.2,341.8,1.0,1.8,348.9,0.00,17.7,20.8,"01:08:40",1
"20/06/20","01:20",0.0,19.0,92.3,1001.2,325.5,1.3,2.4,353.5,0.00,17.8,20.8,"01:17:04",1
"20/06/20","01:30",0.0,19.3,91.8,1001.5,339.8,1.6,2.7,331.7,0.00,18.0,20.6,"01:21:44",1
"20/06/20","01:40",0.0,19.4,91.5,1001.5,339.6,0.8,1.9,332.9,0.00,18.0,20.7,"01:30:24",1
"20/06/20","01:50",0.0,19.4,91.2,1001.7,330.4,0.6,1.3,344.4,0.00,18.0,20.7,"01:46:32",1
"20/06/20","02:00",0.0,19.2,91.0,1001.7,292.1,0.5,0.9,259.5,0.00,17.7,20.7,"01:59:04",1
"20/06/20","02:10",0.0,19.0,90.9,1001.5,305.6,0.5,1.1,314.3,0.00,17.5,20.8,"02:06:16",1
"20/06/20","02:20",0.0,18.9,90.9,1001.5,302.4,0.2,0.5,340.1,0.00,17.4,20.7,"02:10:32",1
"20/06/20","02:30",0.0,18.8,90.9,1001.7,330.4,0.3,0.9,308.1,0.00,17.3,20.6,"02:27:36",1
"20/06/20","02:40",0.0,18.9,90.9,1001.9,336.3,0.5,0.9,314.0,0.00,17.4,20.7,"02:35:28",1
"20/06/20","02:50",0.0,19.0,90.9,1001.9,343.1,0.3,1.4,2.7,0.00,17.5,20.7,"02:48:16",1
"20/06/20","03:00",0.0,18.9,91.1,1001.7,357.5,0.6,1.2,4.0,0.00,17.5,20.4,"02:59:04",1
"20/06/20","03:10",0.0,18.9,91.2,1001.5,4.4,0.3,1.0,16.1,0.00,17.5,20.5,"03:01:12",1
"20/06/20","03:20",0.0,19.0,91.3,1002.4,328.0,0.2,0.9,340.7,0.00,17.6,20.6,"03:19:12",1
"20/06/20","03:30",0.0,19.0,91.4,1002.2,300.2,0.6,2.0,352.6,0.00,17.6,20.5,"03:28:16",1
"20/06/20","03:40",0.0,18.9,91.4,1002.6,340.7,1.1,2.2,327.4,0.00,17.5,20.5,"03:38:32",1
"20/06/20","03:50",0.0,19.1,91.2,1002.4,318.8,1.0,2.4,347.8,0.00,17.7,20.6,"03:41:04",1
"20/06/20","04:00",0.0,19.2,91.0,1002.6,282.1,0.6,1.3,329.1,0.00,17.7,20.4,"03:56:00",1
"20/06/20","04:10",0.0,19.0,90.8,1002.9,327.5,0.6,1.4,341.1,0.00,17.5,20.7,"04:07:20",1
"20/06/20","04:20",0.0,19.0,90.6,1002.9,326.0,0.8,1.4,347.9,0.00,17.5,20.5,"04:11:20",1
"20/06/20","04:30",0.0,19.0,90.5,1003.1,337.4,0.6,1.4,356.8,0.00,17.5,20.7,"04:26:56",1
"20/06/20","04:40",0.0,18.8,90.4,1003.4,296.0,0.5,1.0,338.5,0.00,17.2,20.5,"04:30:16",1
"20/06/20","04:50",0.0,18.8,90.5,1003.1,310.7,0.5,1.0,315.2,0.00,17.3,20.6,"04:49:12",1
"20/06/20","05:00",0.0,18.7,90.5,1002.9,306.7,0.3,1.1,330.9,0.00,17.2,20.5,"04:51:36",1
"20/06/20","05:10",0.0,18.7,90.6,1003.1,329.2,0.6,1.6,346.6,0.00,17.2,20.4,"05:03:04",1
"20/06/20","05:20",0.0,18.8,90.6,1003.6,292.7,0.5,2.5,65.1,0.00,17.3,20.4,"05:10:32",1
"20/06/20","05:30",0.0,18.8,90.6,1003.8,314.6,0.6,1.3,341.8,0.00,17.3,20.5,"05:25:52",1
"20/06/20","05:40",0.0,18.8,90.8,1003.8,296.4,0.6,1.3,318.1,0.01,17.3,20.5,"05:33:20",1
"20/06/20","05:50",0.0,19.1,90.8,1004.1,326.9,0.8,1.9,355.2,0.03,17.6,20.4,"05:44:48",1
"20/06/20","06:00",0.0,19.2,90.7,1003.8,325.8,1.2,2.5,349.9,0.04,17.7,20.4,"05:58:00",1
"20/06/20","06:10",0.0,19.9,90.0,1003.8,291.0,1.0,2.2,338.8,0.07,18.3,20.5,"06:06:40",1
"20/06/20","06:20",0.0,20.4,88.8,1004.1,327.8,1.1,2.2,348.9,0.09,18.5,20.6,"06:17:04",1
"20/06/20","06:30",0.0,20.7,87.0,1004.5,336.8,1.8,3.2,335.5,0.12,18.5,20.7,"06:28:24",1
"20/06/20","06:40",0.0,21.0,84.6,1004.3,309.2,1.3,3.1,341.5,0.11,18.3,20.7,"06:37:12",1
"20/06/20","06:50",0.0,21.0,82.7,1004.5,326.7,1.8,3.6,350.3,0.13,18.0,20.7,"06:47:20",1
"20/06/20","07:00",0.0,21.2,80.8,1004.3,337.1,1.8,4.2,328.7,0.14,17.8,20.7,"06:50:32",1
"20/06/20","07:10",0.0,21.6,79.1,1005.0,344.8,1.1,2.7,347.5,0.14,17.9,20.8,"07:09:20",1
"20/06/20","07:20",0.0,21.9,77.6,1004.3,338.0,1.2,3.3,359.4,0.18,17.9,21.1,"07:11:20",1
"20/06/20","07:30",0.0,22.0,76.0,1004.5,357.9,1.8,3.6,82.1,0.18,17.6,21.2,"07:27:36",1
"20/06/20","07:40",0.0,22.1,75.5,1004.8,342.2,2.0,3.7,342.9,0.21,17.6,21.3,"07:32:40",1
"20/06/20","07:50",0.0,22.3,74.9,1005.0,341.2,2.1,5.6,351.7,0.22,17.7,21.4,"07:41:20",1
"20/06/20","08:00",0.0,22.1,74.7,1005.0,342.0,2.0,4.2,353.7,0.15,17.4,21.2,"07:52:32",1
"20/06/20","08:10",0.0,22.1,75.5,1005.0,348.4,1.8,4.1,348.4,0.18,17.6,21.6,"08:03:36",1
"20/06/20","08:20",0.0,22.1,75.3,1005.0,340.2,2.0,3.7,351.1,0.23,17.6,21.6,"08:19:28",1
"20/06/20","08:30",0.0,22.0,74.7,1005.0,356.4,2.5,5.6,348.9,0.21,17.3,21.5,"08:20:24",1
"20/06/20","08:40",0.0,22.2,74.4,1004.8,344.7,2.1,4.0,354.7,0.24,17.5,21.7,"08:38:08",1
"20/06/20","08:50",0.0,22.1,73.7,1005.0,353.6,2.2,4.0,355.2,0.24,17.2,21.8,"08:45:36",1
"20/06/20","09:00",0.0,22.3,73.5,1004.8,341.0,2.6,4.3,354.8,0.31,17.4,22.0,"08:53:36",1
"20/06/20","09:10",0.0,22.5,73.3,1005.0,355.3,2.6,5.0,332.6,0.38,17.5,22.0,"09:07:36",1
"20/06/20","09:20",0.0,22.6,72.5,1004.3,354.4,2.3,6.2,4.5,0.35,17.4,22.2,"09:16:24",1
"20/06/20","09:30",0.0,22.6,72.6,1004.5,356.9,2.2,5.5,352.4,0.33,17.5,22.1,"09:26:56",1
"20/06/20","09:40",0.0,22.8,71.9,1004.1,345.7,3.2,7.0,346.9,0.49,17.5,22.4,"09:35:52",1
"20/06/20","09:50",0.0,23.1,71.1,1004.5,353.0,3.0,6.6,338.7,0.50,17.6,22.7,"09:48:40",1
"20/06/20","10:00",0.0,23.7,69.4,1004.8,352.7,2.7,5.4,10.4,0.53,17.8,22.8,"09:54:08",1
"20/06/20","10:10",0.0,23.9,68.7,1004.3,352.5,3.0,5.8,345.9,0.59,17.8,23.2,"10:06:48",1
"20/06/20","10:20",0.0,24.3,68.3,1004.1,344.6,3.4,5.8,339.6,0.59,18.1,23.4,"10:13:46",1
"20/06/20","10:30",0.0,23.8,68.5,1003.8,343.6,4.9,9.1,346.3,0.60,17.7,23.5,"10:27:28",1
"20/06/20","10:40",0.0,24.0,67.5,1003.6,339.5,4.2,8.0,347.1,0.56,17.7,23.9,"10:33:14",1
"20/06/20","10:50",0.0,24.1,67.1,1003.4,346.7,3.9,7.7,336.5,0.51,17.7,23.9,"10:44:32",1
"20/06/20","11:00",0.0,24.6,66.5,1003.6,349.2,3.5,7.3,10.1,0.60,18.0,24.3,"10:59:04",1
"20/06/20","11:10",0.0,24.4,65.8,1003.6,338.0,5.1,10.0,334.4,0.56,17.6,24.4,"11:09:36",1
"20/06/20","11:20",0.0,24.9,65.9,1003.4,330.4,4.6,11.2,326.7,0.59,18.1,24.7,"11:10:56",1
"20/06/20","11:30",0.0,25.0,64.9,1002.9,334.9,5.2,8.5,1.1,0.60,18.0,24.9,"11:20:02",1
"20/06/20","11:40",0.0,24.9,65.6,1003.1,330.7,4.9,9.3,335.8,0.56,18.1,24.9,"11:30:16",1
"20/06/20","11:50",0.0,24.5,64.6,1003.1,339.3,4.6,10.5,342.8,0.46,17.4,25.2,"11:44:40",1
"20/06/20","12:00",0.0,24.3,65.4,1002.9,332.6,4.7,9.6,323.6,0.37,17.4,25.0,"11:55:12",1
"20/06/20","12:10",0.0,25.0,63.9,1003.1,333.6,4.1,7.9,333.6,0.49,17.7,25.4,"12:09:44",1
"20/06/20","12:20",0.0,24.4,63.9,1002.9,340.3,4.4,9.0,333.6,0.39,17.2,25.4,"12:13:52",1
"20/06/20","12:30",0.0,24.2,64.5,1003.4,333.5,5.2,11.8,332.6,0.55,17.1,25.6,"12:25:28",1
"20/06/20","12:40",0.0,24.4,64.9,1003.1,338.0,4.6,9.4,344.5,0.49,17.4,25.5,"12:31:52",1
"20/06/20","12:50",0.0,24.1,64.9,1003.1,340.5,4.4,8.2,341.6,0.44,17.1,25.4,"12:47:04",1
"20/06/20","13:00",0.0,23.9,64.2,1003.1,343.3,4.0,7.5,345.4,0.39,16.8,25.3,"12:54:24",1
"20/06/20","13:10",0.0,23.8,64.9,1003.4,339.0,3.6,9.3,340.2,0.29,16.8,25.2,"13:02:48",1
"20/06/20","13:20",0.0,23.7,64.9,1003.1,342.3,3.9,8.2,324.6,0.33,16.8,25.1,"13:17:52",1
"20/06/20","13:30",0.0,24.1,64.0,1003.4,342.5,3.1,7.1,345.2,0.36,16.9,25.0,"13:20:08",1
"20/06/20","13:40",0.0,24.0,63.2,1003.4,342.4,3.2,6.2,334.5,0.25,16.6,25.0,"13:36:00",1
"20/06/20","13:50",0.0,24.4,63.7,1003.1,347.1,2.7,4.5,355.1,0.30,17.1,25.0,"13:40:40",1
"20/06/20","14:00",0.0,24.3,63.1,1003.6,345.6,2.7,5.7,323.4,0.32,16.9,25.0,"13:51:44",1
"20/06/20","14:10",0.0,24.6,61.9,1002.9,356.8,2.3,4.2,345.7,0.37,16.9,24.8,"14:03:20",1
"20/06/20","14:20",0.0,25.1,62.2,1003.1,0.6,2.1,4.4,358.8,0.39,17.4,24.9,"14:11:28",1
"20/06/20","14:30",0.0,24.5,62.0,1002.9,350.0,2.2,5.1,3.2,0.28,16.8,24.8,"14:24:32",1
"20/06/20","14:40",0.0,24.4,63.7,1002.9,348.3,2.1,4.8,331.9,0.22,17.1,25.0,"14:31:20",1
"20/06/20","14:50",0.0,24.1,63.7,1002.9,357.3,2.6,5.6,5.8,0.29,16.8,25.1,"14:45:28",1
"20/06/20","15:00",0.0,24.1,62.1,1003.1,346.5,2.8,5.7,333.3,0.35,16.4,25.0,"14:55:28",1
"20/06/20","15:10",0.0,24.5,61.4,1002.6,343.2,2.8,5.7,6.0,0.36,16.6,24.8,"15:05:12",1
"20/06/20","15:20",0.0,24.7,60.6,1002.6,342.9,2.6,5.5,349.5,0.37,16.6,24.9,"15:12:00",1
"20/06/20","15:30",0.0,24.9,60.3,1002.6,343.8,2.7,5.9,313.5,0.39,16.7,24.8,"15:24:32",1
"20/06/20","15:40",0.0,24.3,60.6,1002.6,347.1,2.6,5.0,329.3,0.23,16.2,24.7,"15:36:48",1
"20/06/20","15:50",0.0,24.2,61.6,1002.6,356.3,2.0,4.2,350.4,0.21,16.4,24.9,"15:47:52",1
"20/06/20","16:00",0.0,24.0,61.6,1002.6,348.5,2.3,5.5,343.7,0.19,16.2,24.7,"15:50:48",1
"20/06/20","16:10",0.0,24.1,62.6,1002.6,351.0,1.8,3.6,348.9,0.18,16.6,24.7,"16:02:24",1
"20/06/20","16:20",0.0,24.1,62.6,1002.2,355.6,1.8,5.2,344.2,0.20,16.6,24.8,"16:19:04",1
"20/06/20","16:30",0.0,23.8,63.2,1002.6,343.2,3.0,5.2,334.0,0.19,16.4,24.7,"16:28:32",1
"20/06/20","16:40",0.0,23.7,63.4,1002.9,341.2,2.5,5.6,346.4,0.15,16.4,24.7,"16:30:24",1
"20/06/20","16:50",0.0,23.6,63.6,1002.4,344.7,2.1,4.0,323.8,0.07,16.3,24.6,"16:40:40",1
"20/06/20","17:00",0.0,23.5,63.3,1002.9,342.8,2.7,5.2,339.0,0.05,16.2,24.5,"16:53:44",1
"20/06/20","17:10",0.0,23.4,64.1,1002.6,346.1,2.6,4.7,332.6,0.05,16.3,24.4,"17:03:12",1
"20/06/20","17:20",0.0,23.1,64.2,1002.6,341.6,2.8,8.0,343.7,0.04,16.0,24.5,"17:18:16",1
"20/06/20","17:30",0.0,23.2,63.5,1002.9,341.8,3.7,6.7,348.2,0.02,15.9,24.2,"17:22:32",1
"20/06/20","17:40",0.0,23.2,64.6,1002.9,337.8,2.8,5.9,347.1,0.02,16.2,24.3,"17:30:24",1
"20/06/20","17:50",0.0,22.9,64.9,1002.9,344.5,3.7,6.5,331.1,0.02,16.0,23.9,"17:40:02",1
"20/06/20","18:00",0.0,22.8,65.6,1003.1,341.6,3.7,6.7,337.4,0.02,16.1,24.2,"17:53:28",1
"20/06/20","18:10",0.0,22.5,66.3,1003.4,340.7,3.5,6.6,326.8,0.02,15.9,23.8,"18:02:56",1
"20/06/20","18:20",0.0,22.1,67.4,1002.9,341.9,3.9,6.4,317.2,0.03,15.8,23.9,"18:10:16",1
"20/06/20","18:30",0.0,21.6,69.2,1003.6,340.7,3.5,7.0,352.4,0.01,15.8,23.6,"18:26:08",1
"20/06/20","18:40",0.0,21.3,70.4,1003.4,337.8,3.4,6.5,341.6,0.00,15.7,23.7,"18:38:00",1
"20/06/20","18:50",0.0,20.9,71.4,1003.6,342.8,3.1,5.1,348.8,0.00,15.6,23.4,"18:48:24",1
"20/06/20","19:00",0.0,20.7,72.4,1003.8,338.4,3.4,7.3,344.0,0.00,15.6,23.2,"18:51:12",1
"20/06/20","19:10",0.0,20.5,73.6,1003.6,345.9,3.1,7.3,323.2,0.00,15.7,23.4,"19:00:32",1
"20/06/20","19:20",0.0,20.3,74.8,1003.6,334.3,3.6,6.3,324.4,0.00,15.7,23.1,"19:17:28",1
"20/06/20","19:30",0.0,20.1,75.5,1004.1,335.9,4.0,7.2,340.8,0.00,15.7,23.1,"19:29:04",1
"20/06/20","19:40",0.0,20.0,76.3,1003.6,336.5,3.9,8.3,339.6,0.00,15.7,22.8,"19:30:02",1
"20/06/20","19:50",0.0,19.9,76.7,1003.8,334.8,3.4,6.0,349.3,0.00,15.7,22.7,"19:41:36",1
"20/06/20","20:00",0.0,19.7,77.2,1004.3,331.5,3.6,5.9,337.6,0.00,15.6,22.7,"19:53:04",1
"20/06/20","20:10",0.0,19.6,77.6,1004.1,336.8,3.6,8.3,340.0,0.00,15.6,22.4,"20:07:36",1
"20/06/20","20:20",0.0,19.4,78.1,1004.1,337.8,3.2,5.8,348.0,0.00,15.5,22.4,"20:10:16",1
"20/06/20","20:30",0.0,19.3,78.6,1004.5,330.8,3.2,7.1,347.4,0.00,15.5,22.4,"20:29:04",1
"20/06/20","20:40",0.0,19.2,78.7,1004.5,327.3,3.2,7.0,334.4,0.00,15.5,22.1,"20:32:48",1
"20/06/20","20:50",0.0,19.2,78.4,1005.0,324.8,3.4,6.5,342.9,0.00,15.4,22.1,"20:49:20",1
"20/06/20","21:00",0.0,19.2,78.3,1005.2,326.9,3.0,6.2,314.1,0.00,15.4,21.9,"20:57:28",1
"20/06/20","21:10",0.0,19.1,78.3,1005.2,323.8,3.4,7.0,323.3,0.00,15.3,21.9,"21:06:32",1
"20/06/20","21:20",0.0,19.1,78.3,1005.2,327.5,3.6,7.2,333.2,0.00,15.3,21.9,"21:11:04",1
"20/06/20","21:30",0.0,19.1,78.2,1005.5,321.4,3.1,6.3,341.5,0.00,15.3,21.7,"21:21:12",1
"20/06/20","21:40",0.0,18.9,78.2,1005.5,304.6,1.7,4.0,350.3,0.00,15.1,21.6,"21:32:00",1
"20/06/20","21:50",0.0,18.7,78.5,1006.0,294.4,1.3,2.5,299.4,0.00,14.9,21.6,"21:47:28",1
"20/06/20","22:00",0.0,18.5,79.0,1005.5,296.6,1.6,3.3,335.0,0.00,14.8,21.4,"21:53:20",1
"20/06/20","22:10",0.0,18.1,79.4,1005.5,279.7,1.0,1.6,276.3,0.00,14.5,21.3,"22:05:44",1
"20/06/20","22:20",0.0,17.7,79.9,1005.7,276.2,1.0,1.2,276.6,0.00,14.2,21.3,"22:14:24",1
"20/06/20","22:30",0.0,17.5,80.8,1005.7,274.1,1.2,1.6,301.8,0.00,14.2,21.2,"22:20:56",1
"20/06/20","22:40",0.0,17.5,81.8,1005.7,270.7,1.2,1.8,283.0,0.00,14.4,21.1,"22:35:36",1
"20/06/20","22:50",0.0,17.5,82.6,1005.7,264.5,1.3,1.7,243.1,0.00,14.5,21.0,"22:42:08",1
"20/06/20","23:00",0.0,17.3,83.2,1005.5,270.7,1.1,1.6,267.5,0.00,14.5,21.2,"22:52:48",1
"20/06/20","23:10",0.0,17.1,83.9,1005.5,273.5,0.8,1.3,281.3,0.00,14.4,20.9,"23:02:08",1
"20/06/20","23:20",0.0,16.8,84.4,1005.7,293.5,0.7,1.1,314.0,0.00,14.2,21.0,"23:16:16",1
"20/06/20","23:30",0.0,16.9,84.8,1005.5,314.7,1.0,2.0,314.4,0.00,14.4,20.6,"23:28:32",1
"20/06/20","23:40",0.0,16.9,85.4,1005.5,317.9,1.8,2.9,317.3,0.00,14.5,20.9,"23:38:56",1
"20/06/20","23:50",0.0,16.9,86.2,1005.5,329.4,2.0,2.8,330.0,0.00,14.6,20.8,"23:48:56",1
"20/06/20","24:00",0.0,16.8,87.0,1005.2,329.8,1.7,2.9,341.9,0.00,14.7,20.6,"23:56:00",1
